Panama City Beach Gulf Coast Weather Center

Moon Phase Calendar



Online Cameras

 


      

Current Conditions in Panama City
1/26/2021 8:03:14 PM

67°F
Feels Like 72
Clear
Humidity
100%
Pressure
29.97"
Wind
1 mph (ESE)
Dew Point
67°F
UV Index
0/10 (Low)
Visibility
6 mi

Hourly Forecast

Date & Time Tue, Jan 26
8:00 PM
Tue, Jan 26
9:00 PM
Tue, Jan 26
10:00 PM
Tue, Jan 26
11:00 PM
Wed, Jan 27
12:00 AM
Wed, Jan 27
1:00 AM
Wed, Jan 27
2:00 AM
Wed, Jan 27
3:00 AM
Wed, Jan 27
4:00 AM
Wed, Jan 27
5:00 AM
Wed, Jan 27
6:00 AM
Wed, Jan 27
7:00 AM
Wed, Jan 27
8:00 AM
Wed, Jan 27
9:00 AM
Wed, Jan 27
10:00 AM
Wed, Jan 27
11:00 AM
Wed, Jan 27
12:00 PM
Wed, Jan 27
1:00 PM
Wed, Jan 27
2:00 PM
Wed, Jan 27
3:00 PM
Wed, Jan 27
4:00 PM
Wed, Jan 27
5:00 PM
Wed, Jan 27
6:00 PM
Wed, Jan 27
7:00 PM
Wed, Jan 27
8:00 PM
Wed, Jan 27
9:00 PM
Wed, Jan 27
10:00 PM
Wed, Jan 27
11:00 PM
Thu, Jan 28
12:00 AM
Thu, Jan 28
1:00 AM
Thu, Jan 28
2:00 AM
Thu, Jan 28
3:00 AM
Thu, Jan 28
4:00 AM
Thu, Jan 28
5:00 AM
Thu, Jan 28
6:00 AM
Thu, Jan 28
7:00 AM
Thu, Jan 28
8:00 AM
Thu, Jan 28
9:00 AM
Thu, Jan 28
10:00 AM
Thu, Jan 28
11:00 AM
Thu, Jan 28
12:00 PM
Thu, Jan 28
1:00 PM
Thu, Jan 28
2:00 PM
Thu, Jan 28
3:00 PM
Thu, Jan 28
4:00 PM
Thu, Jan 28
5:00 PM
Thu, Jan 28
6:00 PM
Thu, Jan 28
7:00 PM
Condition
Clear

Clear

Clear

Rain

Rain

Rain

Rain

Rain

Rain

Rain

Rain

Rain

Rain

Rain

Rain

Rain

Rain

Clouds

Clouds

Clouds

Clouds

Clouds

Clouds

Clouds

Clear

Clouds

Clouds

Clouds

Clouds

Clouds

Clouds

Clouds

Clouds

Clouds

Clouds

Clear

Clear

Clear

Clear

Clear

Clear

Clear

Clear

Clear

Clear

Clear

Clear

Clear
Temperature 67°F67°F68°F68°F68°F68°F68°F68°F68°F68°F68°F68°F69°F70°F72°F72°F72°F72°F72°F72°F71°F70°F69°F64°F61°F57°F54°F52°F51°F50°F49°F47°F46°F44°F43°F42°F43°F45°F47°F50°F52°F54°F55°F56°F55°F53°F50°F49°F
Feels Like 69°F69°F69°F68°F68°F68°F68°F67°F67°F67°F67°F67°F67°F68°F71°F71°F71°F70°F69°F68°F67°F67°F63°F55°F51°F44°F41°F40°F39°F38°F36°F34°F33°F31°F30°F29°F30°F31°F34°F38°F41°F43°F45°F45°F45°F44°F42°F41°F
Cloudiness 0%0%0%0%2%50%30%20%15%27%39%100%100%94%75%63%54%20%29%26%25%39%37%16%8%23%28%35%38%66%64%50%42%34%31%0%1%0%0%0%0%0%0%0%0%0%0%5%
Visibility 6 mi6 mi6 mi6 mi6 mi6 mi6 mi6 mi6 mi6 mi6 mi6 mi6 mi6 mi5 mi4 mi6 mi6 mi6 mi6 mi6 mi6 mi6 mi6 mi6 mi6 mi6 mi6 mi6 mi6 mi6 mi6 mi6 mi6 mi6 mi6 mi6 mi6 mi6 mi6 mi6 mi6 mi6 mi6 mi6 mi6 mi6 mi6 mi
Precipitation 37%42%46%48%53%80%75%75%80%80%85%97%98%100%100%100%100%60%50%36%36%36%36%0%0%0%0%0%0%0%0%0%0%0%0%0%0%0%0%0%0%0%0%0%0%0%0%0%
Humidity 100%96%93%92%93%93%94%95%94%94%93%93%92%91%86%85%83%81%78%77%78%76%72%70%68%58%62%63%62%61%64%67%67%67%67%68%65%60%55%50%45%43%43%44%46%51%56%59%
Dew Point 67°F66°F66°F66°F66°F66°F66°F66°F66°F66°F66°F66°F67°F67°F68°F67°F67°F66°F65°F64°F64°F63°F59°F55°F50°F43°F42°F40°F39°F37°F37°F37°F35°F34°F33°F33°F32°F31°F31°F31°F32°F33°F33°F34°F35°F36°F36°F36°F
Pressure 29.97"29.97"29.94"29.94"29.94"29.94"29.94"29.91"29.91"29.94"29.94"29.97"29.97"30"30"30"29.97"29.94"29.94"29.94"29.94"30"30.03"30.09"30.15"30.18"30.18"30.21"30.24"30.24"30.27"30.3"30.3"30.33"30.36"30.39"30.42"30.42"30.42"30.42"30.39"30.39"30.39"30.36"30.39"30.39"30.39"30.42"
Wind Speed 6.8 mph7.7 mph8 mph9 mph10.3 mph11 mph10.8 mph11.2 mph10.9 mph11.1 mph12 mph13.1 mph14.1 mph13.2 mph13 mph12.7 mph13.6 mph14.4 mph15 mph15.3 mph15 mph13.9 mph15.6 mph19.2 mph19.1 mph20.1 mph19.1 mph17.8 mph16.7 mph16.2 mph17.5 mph17.3 mph17.4 mph17.2 mph17.3 mph16.8 mph17.3 mph16.9 mph15.3 mph14.5 mph14.1 mph13.6 mph13.3 mph12.9 mph12 mph9.8 mph9.2 mph8.9 mph
Wind
Direction
195°
SSW
196°
SSW
192°
SSW
191°
S
191°
S
196°
SSW
197°
SSW
196°
SSW
195°
SSW
190°
S
195°
SSW
202°
SSW
212°
SSW
224°
SW
230°
SW
240°
WSW
252°
WSW
257°
WSW
263°
W
264°
W
270°
W
290°
WNW
313°
NW
327°
NNW
335°
NNW
340°
NNW
342°
NNW
348°
NNW
351°
N
349°
N
347°
NNW
349°
N
350°
N
352°
N
356°
N
360°
N

N
10°
N
13°
NNE
14°
NNE
13°
NNE
13°
NNE
13°
NNE
12°
NNE
12°
NNE

N

N

N

Daily Forecast

Date High Low Precip. Humidity
Today
Jan 26

Rain
73 °F
67 °F
98%
82%
Wednesday
Jan 27

Rain
72 °F
52 °F
100%
85%
Thursday
Jan 28

Clear
56 °F
43 °F
0%
45%
Friday
Jan 29

Clear
57 °F
39 °F
0%
36%
Saturday
Jan 30

Rain
63 °F
47 °F
36%
66%
Sunday
Jan 31

Rain
69 °F
59 °F
100%
79%
Monday
Feb 1

Clear
61 °F
49 °F
0%
45%
Tuesday
Feb 2

Clear
60 °F
47 °F
0%
38%
Wednesday
Feb 3

Clear
56 °F
39 °F
0%
38%
Thursday
Feb 4

Clear
65 °F
49 °F
0%
60%
Friday
Feb 5

Rain
69 °F
65 °F
84%
82%
Saturday
Feb 6

Rain
67 °F
51 °F
100%
95%
Sunday
Feb 7

Rain
57 °F
43 °F
100%
64%
Monday
Feb 8

Clouds
65 °F
44 °F
0%
46%
Tuesday
Feb 9

Rain
70 °F
59 °F
100%
90%
Wednesday
Feb 10

Clouds
59 °F
50 °F
0%
70%


Temperature 8-14 Day Outlook



Precipitation 8-14 Day Outlook




Quick Links
Panama City Beach Gulf Coast News
Panama City Beach Gulf Coast Photos
Panama City Beach Gulf Coast Videos




About Us
Contact Us
Site Map
Search Site
Advertise With Us
   
PanamaCity.USGulf.info
THE PANAMA CITY BEACH GULF COAST WEBSITE

Copyright 2021, Coastal Town
Privacy    |    Legal